Evenes, Norway

9:25 PM CET on December 11, 2018 (GMT +0100)
Evenes

Weather History for ENEV - March, 2018

Change the Weather History Date:

Tuesday, March 13, 2018

  Actual Average Record
Temperature  
Mean Temperature 18 °F -  
Max Temperature 28 °F 34 °F 49 °F (2015)
Min Temperature 7 °F 24 °F -4 °F (2005)
Degree Days  
Heating Degree Days 48    
Moisture  
Dew Point 9 °F    
Average Humidity 63    
Maximum Humidity 92    
Minimum Humidity 33    
Precipitation  
Precipitation 0.00 in - - ()
Sea Level Pressure  
Sea Level Pressure 29.69 in    
Wind  
Wind Speed 3 mph ()    
Max Wind Speed 13 mph    
Max Gust Speed 32 mph    
Visibility 6.2 miles    
Events      
Averages and records for this station are not official NWS values.
T = Trace of Precipitation, MM = Missing Value Source: Averaged Metar Reports

Daily Weather History Graph

Daily Weather History Graph

Search for Another Location

Airport or City:

Astronomy

Mar. 13, 2018 Rise Set
Actual Time 6:23 AM CET 5:43 PM CET
Civil Twilight 5:27 AM CET 6:40 PM CET
Nautical Twilight 4:19 AM CET 7:49 PM CET
Astronomical Twilight 3:01 AM CET 9:08 PM CET
Moon 6:43 AM CET (3/13) 11:16 AM CET (3/13)
Length of Visible Light 13h 13m
Length of Day
11h 20m
Waning Crescent, 16% of the Moon is Illuminated
Mar 13
Waning Crescent
Mar 17
New
Mar 24
First Quarter
Mar 31
Full
Apr 8
Last Quarter

Hourly Weather History & Observations

Time (CET) Temp. Windchill Dew Point Humidity Pressure Visibility Wind Dir Wind Speed Gust Speed Precip Events Conditions
12:00 AM 23 °F - 12 °F 51% 29.62 in - South 2.2 mph - -  
12:20 AM 21.2 °F - 12.2 °F 68% 29.59 in 6.2 mi Calm Calm - N/A   Partly Cloudy
12:50 AM 15.8 °F 10.2 °F 8.6 °F 73% 29.59 in 6.2 mi SW 3.5 mph - N/A   Unknown
1:00 AM 17 °F - 11 °F 67% 29.62 in - SW 2.2 mph - -  
1:20 AM 15.8 °F - 8.6 °F 73% 29.59 in 6.2 mi Calm Calm - N/A   Unknown
1:50 AM 12.2 °F - 6.8 °F 79% 29.59 in 6.2 mi Variable 1.2 mph - N/A   Unknown
2:00 AM 10 °F - 6 °F 75% 29.62 in - SSW 2.2 mph - -  
2:20 AM 10.4 °F - 6.8 °F 85% 29.59 in 6.2 mi Calm Calm - N/A   Unknown
2:50 AM 8.6 °F - 6.8 °F 92% 29.59 in 6.2 mi Variable 1.2 mph - N/A   Partly Cloudy
3:20 AM 10.4 °F - 8.6 °F 92% 29.59 in 6.2 mi Calm Calm - N/A   Partly Cloudy
3:50 AM 10.4 °F - 5.0 °F 79% 29.59 in 6.2 mi Variable 1.2 mph - N/A   Partly Cloudy
4:00 AM 10 °F - 5 °F 71% 29.62 in - SW 2.2 mph - -  
4:20 AM 17.6 °F - 12.2 °F 79% 29.59 in 6.2 mi Calm Calm - N/A   Unknown
4:50 AM 15.8 °F - 10.4 °F 79% 29.62 in 6.2 mi Variable 2.3 mph - N/A   Unknown
5:20 AM 10.4 °F - 5.0 °F 79% 29.62 in - Calm Calm - N/A   Clear
6:00 AM 9 °F - 5 °F 76% 29.64 in - East 2.2 mph - -  
6:20 AM 10.4 °F 2.2 °F 5.0 °F 79% 29.62 in - South 4.6 mph - N/A   Clear
6:50 AM 19.4 °F 14.3 °F 10.4 °F 68% 29.62 in - Variable 3.5 mph - N/A   Clear
7:00 AM 15 °F - 8 °F 61% 29.65 in - ENE 2.2 mph - -  
7:50 AM 12.2 °F - 6.8 °F 79% 29.65 in - Calm Calm - N/A   Clear
8:00 AM 10 °F - 3 °F 61% 29.68 in - Calm Calm - -  
8:20 AM 19.4 °F - 12.2 °F 74% 29.65 in - Variable 2.3 mph - N/A   Clear
8:50 AM 14.0 °F - 6.8 °F 73% 29.65 in - North 2.3 mph - N/A   Clear
9:00 AM 18 °F - 11 °F 66% 29.69 in - North 2.2 mph - -  
9:20 AM 14.0 °F 8.2 °F 6.8 °F 73% 29.68 in - North 3.5 mph - N/A   Clear
9:50 AM 19.4 °F - 10.4 °F 68% 29.68 in - Variable 2.3 mph - N/A   Clear
10:00 AM 20 °F - 11 °F 57% 29.70 in - South 4.5 mph - -  
10:20 AM 24.8 °F 20.5 °F 10.4 °F 54% 29.68 in - Variable 3.5 mph - N/A   Clear
10:50 AM 28.4 °F 23.3 °F 8.6 °F 43% 29.68 in - South 4.6 mph - N/A   Clear
11:00 AM 25 °F - 8 °F 34% 29.70 in - SE 8.9 mph - -  
11:50 AM 26.6 °F 20.0 °F 10.4 °F 51% 29.68 in - Variable 5.8 mph - N/A   Clear
12:00 PM 28 °F - 10 °F 33% 29.71 in - SSE 6.7 mph - -  
12:50 PM 28.4 °F 22.2 °F 10.4 °F 47% 29.68 in - Variable 5.8 mph - N/A   Clear
1:00 PM 26 °F - 12 °F 42% 29.72 in - ESE 11.2 mph - -  
1:20 PM 26.6 °F 16.8 °F 10.4 °F 51% 29.71 in - ESE 10.4 mph - N/A   Clear
1:50 PM 26.6 °F 16.2 °F 10.4 °F 51% 29.71 in - SE 11.5 mph 25.3 mph N/A   Clear
2:00 PM 26 °F - 13 °F 43% 29.72 in - ESE 8.9 mph - -  
2:20 PM 26.6 °F 18.2 °F 10.4 °F 51% 29.71 in - SE 8.1 mph 32.2 mph N/A   Clear
2:50 PM 26.6 °F 17.5 °F 10.4 °F 51% 29.71 in - SE 9.2 mph - N/A   Clear
3:00 PM 26 °F - 13 °F 44% 29.73 in - ESE 11.2 mph - -  
3:50 PM 24.8 °F 14.0 °F 10.4 °F 54% 29.71 in - ESE 11.5 mph 26.5 mph N/A   Clear
4:00 PM 25 °F - 12 °F 45% 29.75 in - ESE 13.4 mph - -  
5:00 PM 23 °F - 11 °F 48% 29.77 in - ESE 13.4 mph - -  
5:50 PM 21.2 °F 10.1 °F 8.6 °F 58% 29.77 in - SE 10.4 mph - N/A   Clear
6:00 PM 22 °F - 10 °F 48% 29.79 in - East 6.7 mph - -  
6:50 PM 21.2 °F - 8.6 °F 58% 29.77 in - Variable 1.2 mph - N/A   Clear
8:50 PM 21.2 °F 14.9 °F 8.6 °F 58% 29.80 in - South 4.6 mph - N/A   Clear
9:00 PM 20 °F - 9 °F 48% 29.83 in - SSW 4.5 mph - -  
9:50 PM 17.6 °F - 6.8 °F 63% 29.83 in - Variable 1.2 mph - N/A   Clear
10:00 PM 17 °F - 9 °F 59% 29.85 in - NW 4.5 mph - -  
10:50 PM 15.8 °F 10.2 °F 6.8 °F 68% 29.83 in - Variable 3.5 mph - N/A   Clear
11:00 PM 17 °F - 9 °F 61% 29.87 in - North 2.2 mph - -  
11:20 PM 14.0 °F - 5.0 °F 67% 29.86 in 6.2 mi Variable 2.3 mph - N/A   Unknown
11:50 PM 12.2 °F - 5.0 °F 73% 29.86 in 6.2 mi Variable 2.3 mph - N/A   Unknown